#timestamp,LO_Frequency,Hit,StdDev 
1550188815.5,286046999.5,N
1550188835.3,286046995.8,N
1550188855.2,286046996.0,N
1550188875.9,286046990.7,N
1550188895.7,286046992.2,N
1550188915.6,286046994.2,N
1550188935.4,286047002.6,N
1550188955.2,286047001.1,N
1550188975.1,286046998.3,N
1550188976.0,286046998.3,N
1550188995.8,286047000.4,N
1550189015.7,286047000.3,N
1550189035.5,286047005.8,N
1550189055.3,286047003.5,N
1550189075.2,286047001.6,N
1550189095.0,286047003.4,N
1550189095.9,286047003.4,N
1550189115.8,286047001.9,N
1550189135.6,286047005.0,N
1550189155.4,286047006.9,N
1550189175.3,286047008.6,N
1550189195.1,286046998.1,N
1550189215.8,286047001.6,N
1550189235.7,286046998.6,N
1550189255.5,286046986.5,Y
1550189275.4,286046986.1,P
1550189295.2,286046985.3,N
1550189315.0,286046996.2,N
1550189315.9,286046996.2,N
1550189335.8,286046999.5,N
1550189355.6,286046992.2,N
1550189375.5,286046992.1,N
1550189395.3,286046993.4,N
1550189415.1,286046990.0,N
1550189435.9,286046986.1,N
1550189455.7,286046992.9,N
1550189475.5,286046987.8,N
1550189495.4,286046991.8,N
1550189515.2,286046989.7,N
1550189535.1,286046995.7,N
1550189536.0,286046995.7,N
1550189555.8,286046999.7,N
1550189575.6,286047002.7,N
1550189595.5,286047002.6,N
1550189615.3,286047008.1,N
1550189635.1,286047008.9,N
1550189655.9,286047012.8,N
1550189675.7,286047013.5,N
1550189695.6,286047004.0,N
1550189715.4,286047003.9,N
1550189735.2,286047000.7,N
1550189755.1,286046990.3,N
1550189756.0,286046990.3,N
1550189775.8,286046994.6,N
1550189795.7,286046990.9,N
1550189815.5,286046984.6,N
1550189835.3,286046986.3,N
1550189855.2,286046990.3,N
1550189875.0,286046985.1,N
1550189875.9,286046985.1,N
1550189895.8,286046985.6,N
1550189915.6,286046992.9,N
1550189935.4,286046991.7,N
1550189955.3,286046992.9,N
1550189975.1,286046993.5,N
1550189995.8,286046992.0,N
1550190015.7,286046989.6,N
1550190035.5,286046989.3,N
1550190055.4,286046996.2,N
1550190075.2,286046992.6,N
1550190095.0,286047002.4,N
1550190095.9,286047002.4,N
1550190115.8,286047004.2,N
1550190135.6,286047004.8,N
1550190155.5,286047007.6,N
1550190175.3,286047011.8,N
1550190195.1,286047011.0,N
1550190215.9,286047007.4,N
1550190235.7,286047001.7,N
1550190255.5,286047009.5,N
1550190275.4,286047006.1,N
1550190295.2,286047003.2,N
1550190315.1,286047002.2,N
1550190316.0,286047002.2,N
1550190335.8,286047001.9,N
1550190355.6,286047005.2,N
1550190375.5,286047006.5,N
1550190395.3,286047016.7,N
1550190415.1,286047005.4,N
1550190435.9,286047007.4,N
1550190455.7,286047016.7,N
1550190475.6,286047007.9,N
1550190495.4,286047009.7,N
1550190515.2,286047008.0,N
1550190535.1,286047007.2,N
1550190536.0,286047007.2,N
1550190555.8,286047005.5,N
1550190575.7,286047003.3,N
1550190595.5,286046999.4,N
1550190615.3,286046999.0,N
1550190635.2,286046996.5,N
1550190655.0,286047004.4,N
1550190655.9,286047004.4,N
1550190675.8,286047001.8,N
1550190695.6,286046990.4,N
1550190715.4,286046995.4,N
1550190735.3,286046998.3,N
1550190755.1,286046998.9,N
1550190775.8,286047005.2,N
1550190795.7,286047008.5,N
1550190815.5,286047006.1,N
1550190835.4,286047010.4,N
1550190855.2,286047006.4,N
1550190875.0,286047011.2,N
1550190875.9,286047011.2,N
1550190895.8,286047017.3,Y
1550190915.6,286047016.0,P
1550190935.5,286047028.4,P
1550190955.3,286047028.1,N
1550190975.1,286047026.7,N
1550190995.9,286047024.6,N
1550191015.7,286047027.1,Y
1550191035.5,286047005.8,P
1550191055.4,286047005.7,N
1550191075.2,286047011.9,N
1550191095.1,286047001.4,N
1550191096.0,286047001.4,N
1550191115.8,286047010.2,N
1550191135.6,286047007.9,N
1550191155.5,286047012.0,N
1550191175.3,286047011.1,N
1550191195.2,286047004.5,N
1550191215.9,286047012.0,N
1550191235.7,286047008.2,N
1550191255.6,286047011.0,N
1550191275.4,286047016.1,Y
1550191295.2,286047008.1,P
1550191315.1,286047008.5,P
1550191316.0,286047008.5,P
1550191335.8,286047007.4,Y
1550191355.7,286046998.4,P
1550191375.5,286047000.8,N
1550191395.3,286047000.7,N
1550191415.2,286047005.1,N
1550191435.0,286047010.7,N
1550191435.9,286047010.7,N
1550191455.8,286047004.1,N
1550191475.6,286047004.0,N
1550191495.4,286047002.5,N
1550191515.3,286047003.7,N
1550191535.1,286047000.9,N
1550191555.8,286046997.8,N
1550191575.7,286046996.6,N
1550191595.5,286047002.1,N
1550191615.4,286046998.6,N
1550191635.2,286046994.4,N
1550191655.0,286046996.8,N
1550191655.9,286046996.8,N
1550191675.8,286046989.6,N
1550191695.6,286046984.9,N
1550191715.5,286046991.9,N
1550191735.3,286046991.6,N
1550191755.1,286046991.1,N
1550191775.9,286046993.6,N
1550191795.7,286046998.9,N
1550191815.5,286047002.3,N
1550191835.4,286046997.2,N
1550191855.2,286046998.6,N
1550191875.1,286046998.4,N
1550191876.0,286046998.4,N
1550191895.8,286046998.8,N
1550191915.6,286046998.9,N
1550191935.5,286046996.9,N
1550191955.3,286047000.8,N
1550191975.2,286046998.6,N
1550191995.9,286047005.8,N
1550192015.7,286047004.3,N
1550192035.6,286047001.4,N
1550192055.4,286047004.0,N
1550192075.2,286047010.8,N
1550192095.1,286047010.2,N
1550192096.0,286047010.2,N
1550192115.8,286047008.2,N
1550192135.7,286047005.9,N
1550192155.5,286047006.7,N
1550192175.3,286047011.8,N
1550192195.2,286047009.0,N
1550192215.0,286047008.7,N
1550192215.9,286047008.7,N
1550192235.8,286047012.1,N
1550192255.6,286047012.3,N
1550192275.4,286047015.0,N
1550192295.3,286047023.1,Y
1550192315.1,286047013.5,P
1550192335.9,286047018.7,P
1550192355.4,286047019.6,P
1550192375.2,286047018.2,N
1550192395.0,286047010.4,N
1550192395.9,286047010.4,N
